{"data":{"norad_id":51752,"epoch":"2026-05-25T04:45:14.034240Z","epoch_age_seconds":48087,"freshness":"FRESH","line1":"1 51752U 22016AQ  26145.19807910  .00000010  00000+0  18746-4 0  9994","line2":"2 51752  53.2137 325.5939 0001362  95.2283 264.8865 15.08834556235251","mean_motion":15.08834556,"eccentricity":0.0001362,"inclination_deg":53.2137,"raan_deg":325.5939,"arg_perigee_deg":95.2283,"mean_anomaly_deg":264.8865,"bstar":1.8746e-5,"rev_number":23525,"period_min":95.437899024365,"perigee_km":538.81781156886,"apogee_km":540.7022467196,"semimajor_km":6917.8970291442,"source":"CELESTRAK","updated_at":"2026-05-25T13:38:16.947529Z"}}